Year,Month,Day,Hour,Minute,Value (Times are PST for temperature in C)
2013,07,23,00,00,17.30
2013,07,23,00,01,17.20
2013,07,23,00,02,17.20
2013,07,23,00,03,17.20
2013,07,23,00,04,17.20
2013,07,23,00,05,17.20
2013,07,23,00,06,17.20
2013,07,23,00,07,17.10
2013,07,23,00,08,17.10
2013,07,23,00,09,17.10
2013,07,23,00,10,17.10
2013,07,23,00,11,17.10
2013,07,23,00,12,17.10
2013,07,23,00,13,17.00
2013,07,23,00,14,17.00
2013,07,23,00,15,16.90
2013,07,23,00,16,16.90
2013,07,23,00,17,16.90
2013,07,23,00,18,16.90
2013,07,23,00,19,16.80
2013,07,23,00,20,16.80
2013,07,23,00,21,16.80
2013,07,23,00,22,16.80
2013,07,23,00,23,16.80
2013,07,23,00,24,16.70
2013,07,23,00,25,16.70
2013,07,23,00,26,16.70
2013,07,23,00,27,16.70
2013,07,23,00,28,16.70
2013,07,23,00,29,16.70
2013,07,23,00,30,16.70
2013,07,23,00,31,16.70
2013,07,23,00,32,16.70
2013,07,23,00,33,16.70
2013,07,23,00,34,16.70
2013,07,23,00,35,16.70
2013,07,23,00,36,16.80
2013,07,23,00,37,16.80
2013,07,23,00,38,16.80
2013,07,23,00,39,16.80
2013,07,23,00,40,16.80
2013,07,23,00,41,16.80
2013,07,23,00,42,16.80
2013,07,23,00,43,16.80
2013,07,23,00,44,16.80
2013,07,23,00,45,16.80
2013,07,23,00,46,16.80
2013,07,23,00,47,16.80
2013,07,23,00,48,16.80
2013,07,23,00,49,16.80
2013,07,23,00,50,16.70
2013,07,23,00,51,16.70
2013,07,23,00,52,16.70
2013,07,23,00,53,16.70
2013,07,23,00,54,16.70
2013,07,23,00,55,16.70
2013,07,23,00,56,16.60
2013,07,23,00,57,16.60
2013,07,23,00,58,16.60
2013,07,23,00,59,16.60
2013,07,23,01,00,16.60
2013,07,23,01,01,16.60
2013,07,23,01,02,16.60
2013,07,23,01,03,16.50
2013,07,23,01,04,16.50
2013,07,23,01,05,16.50
2013,07,23,01,06,16.50
2013,07,23,01,07,16.50
2013,07,23,01,08,16.40
2013,07,23,01,09,16.40
2013,07,23,01,10,16.40
2013,07,23,01,11,16.40
2013,07,23,01,12,16.40
2013,07,23,01,13,16.40
2013,07,23,01,14,16.40
2013,07,23,01,15,16.40
2013,07,23,01,16,16.40
2013,07,23,01,17,16.40
2013,07,23,01,18,16.40
2013,07,23,01,19,16.40
2013,07,23,01,20,16.30
2013,07,23,01,21,16.30
2013,07,23,01,22,16.30
2013,07,23,01,23,16.30
2013,07,23,01,24,16.30
2013,07,23,01,25,16.30
2013,07,23,01,26,16.30
2013,07,23,01,27,16.30
2013,07,23,01,28,16.30
2013,07,23,01,29,16.30
2013,07,23,01,30,16.30
2013,07,23,01,31,16.20
2013,07,23,01,32,16.20
2013,07,23,01,33,16.20
2013,07,23,01,34,16.20
2013,07,23,01,35,16.20
2013,07,23,01,36,16.10
2013,07,23,01,37,16.10
2013,07,23,01,38,16.10
2013,07,23,01,39,16.10
2013,07,23,01,40,16.00
2013,07,23,01,41,16.00
2013,07,23,01,42,16.00
2013,07,23,01,43,15.90
2013,07,23,01,44,15.90
2013,07,23,01,45,15.90
2013,07,23,01,46,15.80
2013,07,23,01,47,15.80
2013,07,23,01,48,15.80
2013,07,23,01,49,15.80
2013,07,23,01,50,15.70
2013,07,23,01,51,15.70
2013,07,23,01,52,15.70
2013,07,23,01,53,15.70
2013,07,23,01,54,15.70
2013,07,23,01,55,15.70
2013,07,23,01,56,15.70
2013,07,23,01,57,15.60
2013,07,23,01,58,15.60
2013,07,23,01,59,15.60
2013,07,23,02,00,15.60
2013,07,23,02,01,15.60
2013,07,23,02,02,15.60
2013,07,23,02,03,15.60
2013,07,23,02,04,15.60
2013,07,23,02,05,15.60
2013,07,23,02,06,15.60
2013,07,23,02,07,15.60
2013,07,23,02,08,15.60
2013,07,23,02,09,15.60
2013,07,23,02,10,15.70
2013,07,23,02,11,15.70
2013,07,23,02,12,15.70
2013,07,23,02,13,15.70
2013,07,23,02,14,15.70
2013,07,23,02,15,15.70
2013,07,23,02,16,15.70
2013,07,23,02,17,15.70
2013,07,23,02,18,15.80
2013,07,23,02,19,15.80
2013,07,23,02,20,15.80
2013,07,23,02,21,15.80
2013,07,23,02,22,15.80
2013,07,23,02,23,15.80
2013,07,23,02,24,15.80
2013,07,23,02,25,15.70
2013,07,23,02,26,15.70
2013,07,23,02,27,15.70
2013,07,23,02,28,15.70
2013,07,23,02,29,15.70
2013,07,23,02,30,15.70
2013,07,23,02,31,15.70
2013,07,23,02,32,15.60
2013,07,23,02,33,15.60
2013,07,23,02,34,15.60
2013,07,23,02,35,15.60
2013,07,23,02,36,15.60
2013,07,23,02,37,15.60
2013,07,23,02,38,15.50
2013,07,23,02,39,15.50
2013,07,23,02,40,15.50
2013,07,23,02,41,15.50
2013,07,23,02,42,15.40
2013,07,23,02,43,15.40
2013,07,23,02,44,15.40
2013,07,23,02,45,15.40
2013,07,23,02,46,15.40
2013,07,23,02,47,15.30
2013,07,23,02,48,15.30
2013,07,23,02,49,15.30
2013,07,23,02,50,15.30
2013,07,23,02,51,15.30
2013,07,23,02,52,15.30
2013,07,23,02,53,15.30
2013,07,23,02,54,15.30
2013,07,23,02,55,15.30
2013,07,23,02,56,15.30
2013,07,23,02,57,15.30
2013,07,23,02,58,15.30
2013,07,23,02,59,15.20
2013,07,23,03,00,15.20
2013,07,23,03,01,15.20
2013,07,23,03,02,15.20
2013,07,23,03,03,15.20
2013,07,23,03,04,15.20
2013,07,23,03,05,15.20
2013,07,23,03,06,15.20
2013,07,23,03,07,15.20
2013,07,23,03,08,15.10
2013,07,23,03,09,15.10
2013,07,23,03,10,15.10
2013,07,23,03,11,15.10
2013,07,23,03,12,15.10
2013,07,23,03,13,15.10
2013,07,23,03,14,15.00
2013,07,23,03,15,15.00
2013,07,23,03,16,15.00
2013,07,23,03,17,15.00
2013,07,23,03,18,15.00
2013,07,23,03,19,15.00
2013,07,23,03,20,15.00
2013,07,23,03,21,15.00
2013,07,23,03,22,15.00
2013,07,23,03,23,15.00
2013,07,23,03,24,15.00
2013,07,23,03,25,15.00
2013,07,23,03,26,15.00
2013,07,23,03,27,15.00
2013,07,23,03,28,15.00
2013,07,23,03,29,15.00
2013,07,23,03,30,15.00
2013,07,23,03,31,15.00
2013,07,23,03,32,15.10
2013,07,23,03,33,15.10
2013,07,23,03,34,15.10
2013,07,23,03,35,15.10
2013,07,23,03,36,15.10
2013,07,23,03,37,15.10
2013,07,23,03,38,15.10
2013,07,23,03,39,15.10
2013,07,23,03,40,15.10
2013,07,23,03,41,15.10
2013,07,23,03,42,15.10
2013,07,23,03,43,15.10
2013,07,23,03,44,15.10
2013,07,23,03,45,15.10
2013,07,23,03,46,15.10
2013,07,23,03,47,15.10
2013,07,23,03,48,15.10
2013,07,23,03,49,15.00
2013,07,23,03,50,15.00
2013,07,23,03,51,15.00
2013,07,23,03,52,15.00
2013,07,23,03,53,15.00
2013,07,23,03,54,15.00
2013,07,23,03,55,15.00
2013,07,23,03,56,15.00
2013,07,23,03,57,15.00
2013,07,23,03,58,15.00
2013,07,23,03,59,15.00
2013,07,23,04,00,15.00
2013,07,23,04,01,15.00
2013,07,23,04,02,15.00
2013,07,23,04,03,15.00
2013,07,23,04,04,14.90
2013,07,23,04,05,14.90
2013,07,23,04,06,14.90
2013,07,23,04,07,14.90
2013,07,23,04,08,14.90
2013,07,23,04,09,14.90
2013,07,23,04,10,14.90
2013,07,23,04,11,14.90
2013,07,23,04,12,14.90
2013,07,23,04,13,14.90
2013,07,23,04,14,14.90
2013,07,23,04,15,14.80
2013,07,23,04,16,14.80
2013,07,23,04,17,14.80
2013,07,23,04,18,14.80
2013,07,23,04,19,14.80
2013,07,23,04,20,14.80
2013,07,23,04,21,14.80
2013,07,23,04,22,14.80
2013,07,23,04,23,14.80
2013,07,23,04,24,14.80
2013,07,23,04,25,14.70
2013,07,23,04,26,14.70
2013,07,23,04,27,14.70
2013,07,23,04,28,14.70
2013,07,23,04,29,14.70
2013,07,23,04,30,14.70
2013,07,23,04,31,14.60
2013,07,23,04,32,14.60
2013,07,23,04,33,14.60
2013,07,23,04,34,14.60
2013,07,23,04,35,14.60
2013,07,23,04,36,14.60
2013,07,23,04,37,14.50
2013,07,23,04,38,14.50
2013,07,23,04,39,14.50
2013,07,23,04,40,14.50
2013,07,23,04,41,14.50
2013,07,23,04,42,14.50
2013,07,23,04,43,14.50
2013,07,23,04,44,14.40
2013,07,23,04,45,14.40
2013,07,23,04,46,14.40
2013,07,23,04,47,14.40
2013,07,23,04,48,14.40
2013,07,23,04,49,14.40
2013,07,23,04,50,14.40
2013,07,23,04,51,14.40
2013,07,23,04,52,14.40
2013,07,23,04,53,14.40
2013,07,23,04,54,14.40
2013,07,23,04,55,14.30
2013,07,23,04,56,14.40
2013,07,23,04,57,14.40
2013,07,23,04,58,14.40
2013,07,23,04,59,14.40
2013,07,23,05,00,14.40
2013,07,23,05,01,14.40
2013,07,23,05,02,14.40
2013,07,23,05,03,14.40
2013,07,23,05,04,14.40
2013,07,23,05,05,14.40
2013,07,23,05,06,14.40
2013,07,23,05,07,14.40
2013,07,23,05,08,14.40
2013,07,23,05,09,14.40
2013,07,23,05,10,14.40
2013,07,23,05,11,14.40
2013,07,23,05,12,14.30
2013,07,23,05,13,14.30
2013,07,23,05,14,14.30
2013,07,23,05,15,14.30
2013,07,23,05,16,14.30
2013,07,23,05,17,14.30
2013,07,23,05,18,14.30
2013,07,23,05,19,14.30
2013,07,23,05,20,14.20
2013,07,23,05,21,14.20
2013,07,23,05,22,14.20
2013,07,23,05,23,14.20
2013,07,23,05,24,14.20
2013,07,23,05,25,14.20
2013,07,23,05,26,14.20
2013,07,23,05,27,14.20
2013,07,23,05,28,14.20
2013,07,23,05,29,14.20
2013,07,23,05,30,14.20
2013,07,23,05,31,14.20
2013,07,23,05,32,14.20
2013,07,23,05,33,14.20
2013,07,23,05,34,14.20
2013,07,23,05,35,14.20
2013,07,23,05,36,14.20
2013,07,23,05,37,14.20
2013,07,23,05,38,14.20
2013,07,23,05,39,14.20
2013,07,23,05,40,14.20
2013,07,23,05,41,14.20
2013,07,23,05,42,14.20
2013,07,23,05,43,14.10
2013,07,23,05,44,14.10
2013,07,23,05,45,14.10
2013,07,23,05,46,14.10
2013,07,23,05,47,14.10
2013,07,23,05,48,14.10
2013,07,23,05,49,14.10
2013,07,23,05,50,14.10
2013,07,23,05,51,14.10
2013,07,23,05,52,14.00
2013,07,23,05,53,14.10
2013,07,23,05,54,14.00
2013,07,23,05,55,14.00
2013,07,23,05,56,14.00
2013,07,23,05,57,14.00
2013,07,23,05,58,14.00
2013,07,23,05,59,14.00
2013,07,23,06,00,13.90
2013,07,23,06,01,13.90
2013,07,23,06,02,13.90
2013,07,23,06,03,13.90
2013,07,23,06,04,13.90
2013,07,23,06,05,13.90
2013,07,23,06,06,13.90
2013,07,23,06,07,13.90
2013,07,23,06,08,13.90
2013,07,23,06,09,13.90
2013,07,23,06,10,13.90
2013,07,23,06,11,13.90
2013,07,23,06,12,14.00
2013,07,23,06,13,14.00
2013,07,23,06,14,14.00
2013,07,23,06,15,14.10
2013,07,23,06,16,14.10
2013,07,23,06,17,14.20
2013,07,23,06,18,14.20
2013,07,23,06,19,14.20
2013,07,23,06,20,14.30
2013,07,23,06,21,14.30
2013,07,23,06,22,14.30
2013,07,23,06,23,14.30
2013,07,23,06,24,14.30
2013,07,23,06,25,14.30
2013,07,23,06,26,14.30
2013,07,23,06,27,14.30
2013,07,23,06,28,14.30
2013,07,23,06,29,14.30
2013,07,23,06,30,14.30
2013,07,23,06,31,14.30
2013,07,23,06,32,14.30
2013,07,23,06,33,14.40
2013,07,23,06,34,14.40
2013,07,23,06,35,14.40
2013,07,23,06,36,14.40
2013,07,23,06,37,14.40
2013,07,23,06,38,14.40
2013,07,23,06,39,14.50
2013,07,23,06,40,14.50
2013,07,23,06,41,14.50
2013,07,23,06,42,14.60
2013,07,23,06,43,14.60
2013,07,23,06,44,14.60
2013,07,23,06,45,14.60
2013,07,23,06,46,14.60
2013,07,23,06,47,14.60
2013,07,23,06,48,14.60
2013,07,23,06,49,14.70
2013,07,23,06,50,14.70
2013,07,23,06,51,14.70
2013,07,23,06,52,14.70
2013,07,23,06,53,14.70
2013,07,23,06,54,14.80
2013,07,23,06,55,14.80
2013,07,23,06,56,14.80
2013,07,23,06,57,14.90
2013,07,23,06,58,14.90
2013,07,23,06,59,14.90
2013,07,23,07,00,15.00
2013,07,23,07,01,15.00
2013,07,23,07,02,15.10
2013,07,23,07,03,15.10
2013,07,23,07,04,15.10
2013,07,23,07,05,15.20
2013,07,23,07,06,15.20
2013,07,23,07,07,15.20
2013,07,23,07,08,15.30
2013,07,23,07,09,15.30
2013,07,23,07,10,15.30
2013,07,23,07,11,15.30
2013,07,23,07,12,15.40
2013,07,23,07,13,15.40
2013,07,23,07,14,15.40
2013,07,23,07,15,15.50
2013,07,23,07,16,15.50
2013,07,23,07,17,15.60
2013,07,23,07,18,15.60
2013,07,23,07,19,15.60
2013,07,23,07,20,15.60
2013,07,23,07,21,15.70
2013,07,23,07,22,15.70
2013,07,23,07,23,15.70
2013,07,23,07,24,15.80
2013,07,23,07,25,15.80
2013,07,23,07,26,15.80
2013,07,23,07,27,15.80
2013,07,23,07,28,15.90
2013,07,23,07,29,15.90
2013,07,23,07,30,15.90
2013,07,23,07,31,16.00
2013,07,23,07,32,16.00
2013,07,23,07,33,16.10
2013,07,23,07,34,16.10
2013,07,23,07,35,16.20
2013,07,23,07,36,16.20
2013,07,23,07,37,16.20
2013,07,23,07,38,16.30
2013,07,23,07,39,16.30
2013,07,23,07,40,16.30
2013,07,23,07,41,16.40
2013,07,23,07,42,16.40
2013,07,23,07,43,16.40
2013,07,23,07,44,16.50
2013,07,23,07,45,16.60
2013,07,23,07,46,16.60
2013,07,23,07,47,16.70
2013,07,23,07,48,16.70
2013,07,23,07,49,16.70
2013,07,23,07,50,16.80
2013,07,23,07,51,16.80
2013,07,23,07,52,16.90
2013,07,23,07,53,16.90
2013,07,23,07,54,17.00
2013,07,23,07,55,17.10
2013,07,23,07,56,17.10
2013,07,23,07,57,17.20
2013,07,23,07,58,17.20
2013,07,23,07,59,17.30
2013,07,23,08,00,17.40
2013,07,23,08,01,17.40
2013,07,23,08,02,17.50
2013,07,23,08,03,17.60
2013,07,23,08,04,17.60
2013,07,23,08,05,17.70
2013,07,23,08,06,17.70
2013,07,23,08,07,17.80
2013,07,23,08,08,17.90
2013,07,23,08,09,17.90
2013,07,23,08,10,18.00
2013,07,23,08,11,18.10
2013,07,23,08,12,18.20
2013,07,23,08,13,18.40
2013,07,23,08,14,18.50
2013,07,23,08,15,18.60
2013,07,23,08,16,18.70
2013,07,23,08,17,18.80
2013,07,23,08,18,18.90
2013,07,23,08,19,19.00
2013,07,23,08,20,19.00
2013,07,23,08,21,19.10
2013,07,23,08,22,19.20
2013,07,23,08,23,19.30
2013,07,23,08,24,19.30
2013,07,23,08,25,19.30
2013,07,23,08,26,19.40
2013,07,23,08,27,19.50
2013,07,23,08,28,19.50
2013,07,23,08,29,19.60
2013,07,23,08,30,19.70
2013,07,23,08,31,19.70
2013,07,23,08,32,19.80
2013,07,23,08,33,19.80
2013,07,23,08,34,19.90
2013,07,23,08,35,19.90
2013,07,23,08,36,19.90
2013,07,23,08,37,19.90
2013,07,23,08,38,19.90
2013,07,23,08,39,20.00
2013,07,23,08,40,20.00
2013,07,23,08,41,20.00
2013,07,23,08,42,20.10
2013,07,23,08,43,20.10
2013,07,23,08,44,20.10
2013,07,23,08,45,20.20
2013,07,23,08,46,20.20
2013,07,23,08,47,20.20
2013,07,23,08,48,20.30
2013,07,23,08,49,20.30
2013,07,23,08,50,20.40
2013,07,23,08,51,20.40
2013,07,23,08,52,20.40
2013,07,23,08,53,20.50
2013,07,23,08,54,20.50
2013,07,23,08,55,20.60
2013,07,23,08,56,20.60
2013,07,23,08,57,20.60
2013,07,23,08,58,20.60
2013,07,23,08,59,20.70
2013,07,23,09,00,20.70
2013,07,23,09,01,20.70
2013,07,23,09,02,20.80
2013,07,23,09,03,20.80
2013,07,23,09,04,20.80
2013,07,23,09,05,20.80
2013,07,23,09,06,20.80
2013,07,23,09,07,20.80
2013,07,23,09,08,20.80
2013,07,23,09,09,20.80
2013,07,23,09,10,20.80
2013,07,23,09,11,20.80
2013,07,23,09,12,20.70
2013,07,23,09,13,20.80
2013,07,23,09,14,20.80
2013,07,23,09,15,20.80
2013,07,23,09,16,20.80
2013,07,23,09,17,20.80
2013,07,23,09,18,20.80
2013,07,23,09,19,20.80
2013,07,23,09,20,20.80
2013,07,23,09,21,20.80
2013,07,23,09,22,20.80
2013,07,23,09,23,20.90
2013,07,23,09,24,20.90
2013,07,23,09,25,21.00
2013,07,23,09,26,21.00
2013,07,23,09,27,21.00
2013,07,23,09,28,21.10
2013,07,23,09,29,21.10
2013,07,23,09,30,21.10
2013,07,23,09,31,21.10
2013,07,23,09,32,21.10
2013,07,23,09,33,21.10
2013,07,23,09,34,21.10
2013,07,23,09,35,21.20
2013,07,23,09,36,21.20
2013,07,23,09,37,21.20
2013,07,23,09,38,21.20
2013,07,23,09,39,21.20
2013,07,23,09,40,21.20
2013,07,23,09,41,21.20
2013,07,23,09,42,21.20
2013,07,23,09,43,21.20
2013,07,23,09,44,21.20
2013,07,23,09,45,21.20
2013,07,23,09,46,21.30
2013,07,23,09,47,21.30
2013,07,23,09,48,21.40
2013,07,23,09,49,21.40
2013,07,23,09,50,21.50
2013,07,23,09,51,21.50
2013,07,23,09,52,21.60
2013,07,23,09,53,21.60
2013,07,23,09,54,21.60
2013,07,23,09,55,21.70
2013,07,23,09,56,21.70
2013,07,23,09,57,21.80
2013,07,23,09,58,21.80
2013,07,23,09,59,21.80
2013,07,23,10,00,21.80
2013,07,23,10,01,21.90
2013,07,23,10,02,21.90
2013,07,23,10,03,21.90
2013,07,23,10,04,21.90
2013,07,23,10,05,22.00
2013,07,23,10,06,21.90
2013,07,23,10,07,21.90
2013,07,23,10,08,21.90
2013,07,23,10,09,21.90
2013,07,23,10,10,22.00
2013,07,23,10,11,22.00
2013,07,23,10,12,22.10
2013,07,23,10,13,22.10
2013,07,23,10,14,22.10
2013,07,23,10,15,22.20
2013,07,23,10,16,22.20
2013,07,23,10,17,22.10
2013,07,23,10,18,22.00
2013,07,23,10,19,22.00
2013,07,23,10,20,22.00
2013,07,23,10,21,21.90
2013,07,23,10,22,21.90
2013,07,23,10,23,22.00
2013,07,23,10,24,22.00
2013,07,23,10,25,22.10
2013,07,23,10,26,22.10
2013,07,23,10,27,22.10
2013,07,23,10,28,22.10
2013,07,23,10,29,22.10
2013,07,23,10,30,22.20
2013,07,23,10,31,22.20
2013,07,23,10,32,22.20
2013,07,23,10,33,22.30
2013,07,23,10,34,22.30
2013,07,23,10,35,22.40
2013,07,23,10,36,22.40
2013,07,23,10,37,22.50
2013,07,23,10,38,22.50
2013,07,23,10,39,22.60
2013,07,23,10,40,22.60
2013,07,23,10,41,22.70
2013,07,23,10,42,22.80
2013,07,23,10,43,22.90
2013,07,23,10,44,23.00
2013,07,23,10,45,23.00
2013,07,23,10,46,23.10
2013,07,23,10,47,23.20
2013,07,23,10,48,23.20
2013,07,23,10,49,23.20
2013,07,23,10,50,23.10
2013,07,23,10,51,23.10
2013,07,23,10,52,23.10
2013,07,23,10,53,23.00
2013,07,23,10,54,23.00
2013,07,23,10,55,23.10
2013,07,23,10,56,23.10
2013,07,23,10,57,23.10
2013,07,23,10,58,23.10
2013,07,23,10,59,23.20
2013,07,23,11,00,23.20
2013,07,23,11,01,23.20
2013,07,23,11,02,23.30
2013,07,23,11,03,23.30
2013,07,23,11,04,23.40
2013,07,23,11,05,23.40
2013,07,23,11,06,23.40
2013,07,23,11,07,23.50
2013,07,23,11,08,23.50
2013,07,23,11,09,23.50
2013,07,23,11,10,23.60
2013,07,23,11,11,23.60
2013,07,23,11,12,23.60
2013,07,23,11,13,23.70
2013,07,23,11,14,23.70
2013,07,23,11,15,23.80
2013,07,23,11,16,23.80
2013,07,23,11,17,23.80
2013,07,23,11,18,23.90
2013,07,23,11,19,23.90
2013,07,23,11,20,23.90
2013,07,23,11,21,24.00
2013,07,23,11,22,24.00
2013,07,23,11,23,23.90
2013,07,23,11,24,23.90
2013,07,23,11,25,23.90
2013,07,23,11,26,23.90
2013,07,23,11,27,23.90
2013,07,23,11,28,24.00
2013,07,23,11,29,24.00
2013,07,23,11,30,24.10
2013,07,23,11,31,24.20
2013,07,23,11,32,24.20
2013,07,23,11,33,24.30
2013,07,23,11,34,24.30
2013,07,23,11,35,24.40
2013,07,23,11,36,24.40
2013,07,23,11,37,24.40
2013,07,23,11,38,24.40
2013,07,23,11,39,24.50
2013,07,23,11,40,24.40
2013,07,23,11,41,24.40
2013,07,23,11,42,24.40
2013,07,23,11,43,24.30
2013,07,23,11,44,24.30
2013,07,23,11,45,24.30
2013,07,23,11,46,24.30
2013,07,23,11,47,24.30
2013,07,23,11,48,24.30
2013,07,23,11,49,24.30
2013,07,23,11,50,24.40
2013,07,23,11,51,24.40
2013,07,23,11,52,24.40
2013,07,23,11,53,24.40
2013,07,23,11,54,24.40
2013,07,23,11,55,24.40
2013,07,23,11,56,24.40
2013,07,23,11,57,24.40
2013,07,23,11,58,24.50
2013,07,23,11,59,24.40
2013,07,23,12,00,24.40
2013,07,23,12,01,24.40
2013,07,23,12,02,24.40
2013,07,23,12,03,24.40
2013,07,23,12,04,24.50
2013,07,23,12,05,24.60
2013,07,23,12,06,24.60
2013,07,23,12,07,24.50
2013,07,23,12,08,24.50
2013,07,23,12,09,24.50
2013,07,23,12,10,24.50
2013,07,23,12,11,24.50
2013,07,23,12,12,24.50
2013,07,23,12,13,24.50
2013,07,23,12,14,24.50
2013,07,23,12,15,24.50
2013,07,23,12,16,24.50
2013,07,23,12,17,24.50
2013,07,23,12,18,24.50
2013,07,23,12,19,24.50
2013,07,23,12,20,24.60
2013,07,23,12,21,24.60
2013,07,23,12,22,24.60
2013,07,23,12,23,24.70
2013,07,23,12,24,24.70
2013,07,23,12,25,24.80
2013,07,23,12,26,24.80
2013,07,23,12,27,24.80
2013,07,23,12,28,24.80
2013,07,23,12,29,24.80
2013,07,23,12,30,24.80
2013,07,23,12,31,24.70
2013,07,23,12,32,24.80
2013,07,23,12,33,24.80
2013,07,23,12,34,24.80
2013,07,23,12,35,24.80
2013,07,23,12,36,24.80
2013,07,23,12,37,24.90
2013,07,23,12,38,24.90
2013,07,23,12,39,25.00
2013,07,23,12,40,25.00
2013,07,23,12,41,25.10
2013,07,23,12,42,25.10
2013,07,23,12,43,25.10
2013,07,23,12,44,25.10
2013,07,23,12,45,25.20
2013,07,23,12,46,25.20
2013,07,23,12,47,25.20
2013,07,23,12,48,25.30
2013,07,23,12,49,25.30
2013,07,23,12,50,25.30
2013,07,23,12,51,25.20
2013,07,23,12,52,25.20
2013,07,23,12,53,25.20
2013,07,23,12,54,25.20
2013,07,23,12,55,25.20
2013,07,23,12,56,25.10
2013,07,23,12,57,25.10
2013,07,23,12,58,25.10
2013,07,23,12,59,25.20
2013,07,23,13,00,25.20
2013,07,23,13,01,25.20
2013,07,23,13,02,25.20
2013,07,23,13,03,25.20
2013,07,23,13,04,25.20
2013,07,23,13,05,25.30
2013,07,23,13,06,25.30
2013,07,23,13,07,25.30
2013,07,23,13,08,25.30
2013,07,23,13,09,25.30
2013,07,23,13,10,25.30
2013,07,23,13,11,25.30
2013,07,23,13,12,25.30
2013,07,23,13,13,25.30
2013,07,23,13,14,25.30
2013,07,23,13,15,25.30
2013,07,23,13,16,25.20
2013,07,23,13,17,25.30
2013,07,23,13,18,25.20
2013,07,23,13,19,25.30
2013,07,23,13,20,25.30
2013,07,23,13,21,25.40
2013,07,23,13,22,25.40
2013,07,23,13,23,25.40
2013,07,23,13,24,25.50
2013,07,23,13,25,25.50
2013,07,23,13,26,25.50
2013,07,23,13,27,25.40
2013,07,23,13,28,25.40
2013,07,23,13,29,25.30
2013,07,23,13,30,25.30
2013,07,23,13,31,25.30
2013,07,23,13,32,25.30
2013,07,23,13,33,25.30
2013,07,23,13,34,25.30
2013,07,23,13,35,25.30
2013,07,23,13,36,25.30
2013,07,23,13,37,25.30
2013,07,23,13,38,25.30
2013,07,23,13,39,25.40
2013,07,23,13,40,25.40
2013,07,23,13,41,25.40
2013,07,23,13,42,25.40
2013,07,23,13,43,25.40
2013,07,23,13,44,25.40
2013,07,23,13,45,25.40
2013,07,23,13,46,25.40
2013,07,23,13,47,25.50
2013,07,23,13,48,25.50
2013,07,23,13,49,25.50
2013,07,23,13,50,25.60
2013,07,23,13,51,25.60
2013,07,23,13,52,25.70
2013,07,23,13,53,25.70
2013,07,23,13,54,25.80
2013,07,23,13,55,25.80
2013,07,23,13,56,25.80
2013,07,23,13,57,25.80
2013,07,23,13,58,25.90
2013,07,23,13,59,25.90
2013,07,23,14,00,25.90
2013,07,23,14,01,26.00
2013,07,23,14,02,26.00
2013,07,23,14,03,26.00
2013,07,23,14,04,26.00
2013,07,23,14,05,25.90
2013,07,23,14,06,25.90
2013,07,23,14,07,25.90
2013,07,23,14,08,25.90
2013,07,23,14,09,25.90
2013,07,23,14,10,25.90
2013,07,23,14,11,25.90
2013,07,23,14,12,25.90
2013,07,23,14,13,25.90
2013,07,23,14,14,25.90
2013,07,23,14,15,25.90
2013,07,23,14,16,25.80
2013,07,23,14,17,25.80
2013,07,23,14,18,25.80
2013,07,23,14,19,25.80
2013,07,23,14,20,25.80
2013,07,23,14,21,25.80
2013,07,23,14,22,25.80
2013,07,23,14,23,25.80
2013,07,23,14,24,25.80
2013,07,23,14,25,25.70
2013,07,23,14,26,25.70
2013,07,23,14,27,25.70
2013,07,23,14,28,25.70
2013,07,23,14,29,25.70
2013,07,23,14,30,25.80
2013,07,23,14,31,25.70
2013,07,23,14,32,25.70
2013,07,23,14,33,25.70
2013,07,23,14,34,25.70
2013,07,23,14,35,25.70
2013,07,23,14,36,25.70
2013,07,23,14,37,25.70
2013,07,23,14,38,25.70
2013,07,23,14,39,25.70
2013,07,23,14,40,25.70
2013,07,23,14,41,25.70
2013,07,23,14,42,25.70
2013,07,23,14,43,25.70
2013,07,23,14,44,25.70
2013,07,23,14,45,25.70
2013,07,23,14,46,25.70
2013,07,23,14,47,25.70
2013,07,23,14,48,25.70
2013,07,23,14,49,25.70
2013,07,23,14,50,25.70
2013,07,23,14,51,25.70
2013,07,23,14,52,25.70
2013,07,23,14,53,25.70
2013,07,23,14,54,25.70
2013,07,23,14,55,25.70
2013,07,23,14,56,25.70
2013,07,23,14,57,25.70
2013,07,23,14,58,25.70
2013,07,23,14,59,25.80
2013,07,23,15,00,25.80
2013,07,23,15,01,25.80
2013,07,23,15,02,25.80
2013,07,23,15,03,25.80
2013,07,23,15,04,25.80
2013,07,23,15,05,25.90
2013,07,23,15,06,25.90
2013,07,23,15,07,26.00
2013,07,23,15,08,26.00
2013,07,23,15,09,26.10
2013,07,23,15,10,26.10
2013,07,23,15,11,26.10
2013,07,23,15,12,26.10
2013,07,23,15,13,26.10
2013,07,23,15,14,26.10
2013,07,23,15,15,26.10
2013,07,23,15,16,26.10
2013,07,23,15,17,26.10
2013,07,23,15,18,26.10
2013,07,23,15,19,26.10
2013,07,23,15,20,26.10
2013,07,23,15,21,26.10
2013,07,23,15,22,26.10
2013,07,23,15,23,26.10
2013,07,23,15,24,26.10
2013,07,23,15,25,26.10
2013,07,23,15,26,26.10
2013,07,23,15,27,26.10
2013,07,23,15,28,26.10
2013,07,23,15,29,26.20
2013,07,23,15,30,26.20
2013,07,23,15,31,26.30
2013,07,23,15,32,26.20
2013,07,23,15,33,26.20
2013,07,23,15,34,26.20
2013,07,23,15,35,26.20
2013,07,23,15,36,26.20
2013,07,23,15,37,26.20
2013,07,23,15,38,26.20
2013,07,23,15,39,26.10
2013,07,23,15,40,26.10
2013,07,23,15,41,26.10
2013,07,23,15,42,26.10
2013,07,23,15,43,26.10
2013,07,23,15,44,26.10
2013,07,23,15,45,26.10
2013,07,23,15,46,26.00
2013,07,23,15,47,26.00
2013,07,23,15,48,26.00
2013,07,23,15,49,26.00
2013,07,23,15,50,26.00
2013,07,23,15,51,26.00
2013,07,23,15,52,26.10
2013,07,23,15,53,26.10
2013,07,23,15,54,26.10
2013,07,23,15,55,26.10
2013,07,23,15,56,26.00
2013,07,23,15,57,26.00
2013,07,23,15,58,26.00
2013,07,23,15,59,26.00
2013,07,23,16,00,25.90
2013,07,23,16,01,25.90
2013,07,23,16,02,25.90
2013,07,23,16,03,25.80
2013,07,23,16,04,25.80
2013,07,23,16,05,25.80
2013,07,23,16,06,25.80
2013,07,23,16,07,25.80
2013,07,23,16,08,25.80
2013,07,23,16,09,25.80
2013,07,23,16,10,25.80
2013,07,23,16,11,25.70
2013,07,23,16,12,25.70
2013,07,23,16,13,25.70
2013,07,23,16,14,25.70
2013,07,23,16,15,25.70
2013,07,23,16,16,25.70
2013,07,23,16,17,25.70
2013,07,23,16,18,25.70
2013,07,23,16,19,25.70
2013,07,23,16,20,25.70
2013,07,23,16,21,25.70
2013,07,23,16,22,25.80
2013,07,23,16,23,25.80
2013,07,23,16,24,25.80
2013,07,23,16,25,25.80
2013,07,23,16,26,25.90
2013,07,23,16,27,25.90
2013,07,23,16,28,25.90
2013,07,23,16,29,25.90
2013,07,23,16,30,26.00
2013,07,23,16,31,26.00
2013,07,23,16,32,26.10
2013,07,23,16,33,26.10
2013,07,23,16,34,26.20
2013,07,23,16,35,26.20
2013,07,23,16,36,26.20
2013,07,23,16,37,26.30
2013,07,23,16,38,26.30
2013,07,23,16,39,26.30
2013,07,23,16,40,26.30
2013,07,23,16,41,26.20
2013,07,23,16,42,26.20
2013,07,23,16,43,26.20
2013,07,23,16,44,26.20
2013,07,23,16,45,26.20
2013,07,23,16,46,26.20
2013,07,23,16,47,26.20
2013,07,23,16,48,26.30
2013,07,23,16,49,26.30
2013,07,23,16,50,26.40
2013,07,23,16,51,26.40
2013,07,23,16,52,26.40
2013,07,23,16,53,26.40
2013,07,23,16,54,26.50
2013,07,23,16,55,26.50
2013,07,23,16,56,26.50
2013,07,23,16,57,26.50
2013,07,23,16,58,26.50
2013,07,23,16,59,26.50
2013,07,23,17,00,26.60
2013,07,23,17,01,26.60
2013,07,23,17,02,26.60
2013,07,23,17,03,26.50
2013,07,23,17,04,26.50
2013,07,23,17,05,26.50
2013,07,23,17,06,26.50
2013,07,23,17,07,26.50
2013,07,23,17,08,26.50
2013,07,23,17,09,26.50
2013,07,23,17,10,26.50
2013,07,23,17,11,26.40
2013,07,23,17,12,26.40
2013,07,23,17,13,26.40
2013,07,23,17,14,26.50
2013,07,23,17,15,26.50
2013,07,23,17,16,26.50
2013,07,23,17,17,26.60
2013,07,23,17,18,26.60
2013,07,23,17,19,26.60